Wind_Speed
32 35 37 40 43 43 43 44 45 46 46 44 45 45 43 42 40 39 39 39 39 39 39 40 41 41 41 41 41 41 42 42 42 43 44 45 46 46 46 46 47 50 51 52 53 54 53 53 52 52 51 51 50 49 48 48 49 50 51 52 51 52 53 53 54 55 56 57 58 60 61 62 63 64 64 64 64 64 64 64 64 64 64 64 65
32 35 37 40 43 44 44 44 46 47 46 46 46 46 45 43 41 40 40 41 41 41 40 41 43 44 44 44 44 45 45 46 46 46 47 48 48 47 47 48 48 49 52 53 53 54 55 54 54 53 53 52 52 51 50 49 49 50 51 52 53 52 52 53 53 55 56 57 58 59 60 61 62 63 64 64 64 64 64 64 64 64 64 64 65
32 35 37 40 43 44 44 44 46 47 48 48 48 47 46 45 43 41 41 42 42 42 42 42 43 44 44 44 45 45 46 47 47 48 49 49 49 48 48 49 48 49 51 53 54 54 55 56 56 55 54 54 54 53 53 52 50 50 51 52 53 53 53 53 53 54 55 57 58 59 60 60 61 62 62 63 63 63 63 63 63 63 64 64 64
32 35 38 40 43 44 44 43 45 48 49 49 48 47 47 46 45 44 44 44 43 43 43 43 43 43 42 43 44 46 46 47 47 48 49 49 49 49 49 50 49 49 50 52 54 54 55 56 57 57 56 56 55 54 53 52 51 51 51 52 52 53 53 53 53 54 54 55 56 57 59 60 61 61 61 62 62 62 62 62 62 62 63 63 63
32 35 38 40 42 44 44 45 45 47 50 49 47 47 47 46 46 46 46 45 45 44 44 44 43 43 44 44 45 46 46 46 46 46 47 48 48 49 50 51 51 51 51 52 53 54 55 55 56 57 57 57 56 54 53 52 51 51 51 52 53 52 52 52 53 53 53 53 53 54 56 58 59 60 61 61 61 61 61 61 61 61 61 61 62
30 34 37 39 41 43 45 46 46 48 49 48 46 46 47 48 48 48 47 46 45 44 44 44 44 45 46 46 46 48 48 49 49 48 48 48 48 49 50 51 52 53 53 53 53 54 55 55 56 56 57 57 57 55 53 52 51 51 51 52 52 52 52 52 52 52 52 52 51 52 53 54 56 57 58 59 59 59 59 60 60 60 60 60 60
28 32 35 37 40 42 44 46 47 48 48 46 45 47 48 48 49 48 47 46 44 44 44 44 45 47 48 48 49 51 52 53 54 54 53 52 51 51 52 53 54 56 57 57 56 55 54 54 55 55 56 57 57 57 55 54 52 51 51 52 52 52 52 52 52 52 52 51 51 51 51 51 52 54 55 56 57 58 58 58 59 59 59 59 59
25 29 32 35 38 41 43 45 46 46 46 46 46 47 48 49 49 49 47 46 45 45 45 46 47 49 50 50 51 52 54 56 56 56 56 56 55 55 54 54 55 56 57 57 56 55 54 54 54 54 55 56 57 57 57 56 55 53 52 52 52 52 51 51 51 52 51 51 51 51 51 51 52 53 54 55 56 57 57 57 57 57 57 57 57
23 26 29 32 35 39 41 43 44 45 47 48 48 48 48 48 49 48 46 45 46 47 48 49 50 51 52 52 53 53 55 56 57 57 57 57 56 54 53 51 51 51 53 53 53 53 53 53 54 54 55 56 56 57 57 57 56 55 54 53 52 52 51 51 51 51 51 52 52 52 52 52 52 53 54 55 56 56 57 57 57 57 58 58 59
20 23 26 29 32 36 39 41 43 45 46 47 47 47 46 46 46 46 45 45 47 49 50 52 52 51 51 51 51 51 52 52 53 53 53 52 50 49 49 48 47 47 48 49 50 50 51 52 53 53 54 55 55 56 56 56 56 56 56 55 55 54 53 53 53 52 52 52 52 53 54 54 54 55 55 56 57 58 58 59 59 60 60 61 62
17 20 23 26 29 33 36 38 41 43 44 45 45 44 44 44 45 45 46 47 48 49 50 51 50 49 47 47 47 47 46 46 46 46 46 45 45 45 45 46 45 46 46 47 48 48 49 50 51 52 52 53 54 55 55 56 56 56 56 56 55 55 55 55 55 54 54 54 54 55 55 56 57 57 58 59 60 60 61 62 63 63 64 65 66
15 18 21 24 27 30 33 36 38 41 42 43 44 43 43 43 44 45 46 47 47 47 47 47 46 45 44 43 42 42 42 42 41 41 41 41 41 41 42 43 44 44 44 45 46 46 47 48 49 50 51 52 53 54 55 56 56 57 57 56 56 56 56 56 57 57 57 57 58 58 59 59 60 60 60 61 62 63 64 64 66 66 67 68 69
14 16 18 21 24 27 31 34 36 39 41 43 44 44 44 44 44 44 44 45 45 44 43 43 42 42 41 39 39 39 39 39 39 38 38 38 38 38 39 39 41 42 42 43 43 44 45 46 47 48 50 51 52 53 54 55 56 57 58 58 58 58 59 59 59 60 60 61 61 62 63 63 63 64 64 65 65 65 66 66 67 68 69 69 70
12 14 17 19 22 24 27 30 33 36 39 42 43 44 44 44 44 43 42 42 42 41 41 40 40 39 38 37 36 36 36 36 36 36 36 36 36 36 36 36 37 38 39 40 41 42 44 45 46 48 49 50 51 52 53 54 55 57 58 59 60 61 61 61 62 62 63 64 65 65 66 66 66 66 66 67 67 67 67 68 68 69 70 71 71
12 13 15 17 20 23 25 28 30 32 35 37 39 40 41 41 41 41 41 41 41 40 39 39 38 37 36 35 34 34 34 33 34 34 34 34 35 35 35 35 35 36 37 39 40 41 43 44 46 47 49 50 51 52 53 54 55 57 58 59 60 61 62 62 63 64 65 66 66 66 67 67 67 67 67 67 67 67 68 68 69 69 70 71 71
12 13 14 16 18 20 23 26 28 31 32 34 36 37 38 39 40 40 41 41 41 40 39 38 37 36 35 34 33 33 32 32 32 32 33 33 34 34 35 35 36 36 37 38 40 41 43 44 46 47 49 50 51 52 53 54 56 57 58 60 61 61 62 63 63 64 65 65 65 65 65 65 65 65 66 66 66 67 67 68 68 69 69 69 69
13 13 14 15 16 18 20 22 25 27 29 31 33 34 36 37 37 38 38 39 38 38 38 37 36 35 34 33 33 32 32 32 32 32 33 33 33 34 34 35 36 37 38 39 40 42 43 44 46 47 48 50 51 52 53 55 56 57 58 59 60 61 61 62 62 62 62 62 62 62 62 62 62 63 63 64 65 65 65 66 66 66 66 66 66
14 15 15 16 17 17 18 20 21 23 24 26 27 28 29 30 31 31 32 32 32 33 33 33 33 33 33 32 32 32 32 31 31 32 33 34 34 34 34 35 36 37 38 39 40 42 43 44 46 47 48 49 51 52 53 54 55 55 56 57 57 58 58 58 58 58 58 58 58 58 59 59 59 60 60 61 62 62 62 62 62 62 62 63 63
15 16 16 17 18 18 19 20 21 21 22 23 24 25 26 27 27 27 27 27 27 28 28 28 29 29 30 31 32 32 32 32 31 32 32 33 33 33 34 35 36 37 38 39 40 41 43 44 45 46 47 48 49 50 51 52 52 52 53 53 53 54 54 54 54 54 54 54 54 55 55 55 56 56 56 57 57 57 58 58 59 59 60 60 60
15 16 17 17 18 19 20 20 21 21 22 23 24 25 25 26 26 26 26 26 26 26 26 26 27 27 28 29 30 31 31 32 32 32 32 33 34 34 35 35 35 36 37 38 39 40 41 42 43 44 45 46 46 47 47 48 48 49 49 49 50 50 50 50 50 50 50 50 50 51 51 52 52 52 53 53 54 54 55 55 56 57 57 58 58
16 17 17 18 18 19 19 20 20 21 22 23 24 25 26 26 26 26 26 26 26 26 26 27 27 28 28 29 29 29 30 30 31 31 32 33 34 35 35 35 35 35 36 37 37 38 39 40 41 41 42 42 43 43 44 44 45 45 46 46 47 47 47 47 47 47 47 47 48 48 49 50 50 51 52 52 53 53 54 55 56 56 57 58 58
16 17 18 18 19 19 19 19 20 21 22 24 25 26 26 26 26 26 26 27 27 27 27 28 28 29 29 29 29 29 29 30 30 30 31 32 33 34 34 34 34 35 35 36 36 37 38 38 39 39 40 40 41 41 42 42 43 43 43 44 44 44 44 44 45 45 45 46 47 48 48 49 50 51 52 53 53 54 55 56 57 57 58 59 59
17 17 18 19 19 19 19 19 20 21 22 23 25 26 26 26 26 27 27 27 28 28 28 29 29 30 30 30 29 29 30 30 30 30 30 31 32 33 33 34 34 34 34 34 35 36 36 37 37 38 38 39 39 40 40 41 41 42 42 42 42 42 43 43 44 45 46 47 47 48 49 50 51 52 53 54 54 55 56 56 57 58 59 59 60
18 18 19 20 20 20 20 20 20 22 23 24 25 25 26 26 26 26 27 27 28 29 29 29 30 30 31 31 30 30 30 30 30 30 30 31 31 32 33 33 34 34 34 34 34 35 36 36 37 38 38 38 39 39 40 40 40 41 41 41 42 42 43 43 45 46 47 48 49 50 51 52 52 53 54 54 55 56 57 57 58 58 59 60 60
19 19 19 20 21 21 21 21 21 22 23 24 25 25 25 25 25 26 27 27 28 28 29 29 30 30 31 31 31 31 31 31 31 30 30 30 31 31 32 32 33 33 34 34 34 34 35 36 37 37 38 38 38 39 39 39 40 40 41 41 42 43 43 44 46 47 48 49 50 51 52 53 53 54 55 55 56 57 58 58 59 59 60 60 61
20 20 20 21 21 21 22 22 22 23 24 25 26 26 26 25 25 26 26 27 28 28 28 28 29 30 31 31 31 31 31 32 32 31 31 31 31 31 31 32 32 33 33 33 34 34 35 36 37 38 38 39 39 39 40 40 41 41 42 42 43 43 44 45 47 48 49 50 51 52 53 54 55 55 56 57 57 58 59 60 61 61 61 62 63
20 21 21 21 21 21 22 22 23 24 25 26 26 27 27 26 26 26 27 27 27 27 27 27 28 29 30 30 31 31 31 32 32 32 32 32 32 32 32 32 33 33 33 34 35 35 36 37 38 38 39 39 39 40 40 41 41 42 42 43 44 45 46 47 48 49 50 51 52 53 54 55 56 57 58 58 59 60 61 62 62 63 63 64 64
19 20 21 22 21 21 21 22 22 23 24 25 27 27 27 27 27 26 27 27 27 27 27 27 27 28 29 29 30 30 30 31 31 32 32 32 32 33 33 34 34 35 35 36 36 37 37 38 38 38 38 38 39 40 40 41 42 42 43 44 45 46 47 48 49 50 51 53 54 55 56 57 58 59 59 60 61 61 62 63 63 64 64 64 65
17 19 20 22 22 21 21 21 21 22 23 24 25 26 27 27 27 27 27 26 26 27 27 27 27 28 28 29 29 29 30 30 31 31 32 32 32 33 33 34 34 35 36 37 37 38 38 38 39 39 39 39 40 41 41 42 42 43 44 44 46 47 48 49 50 52 53 54 56 57 58 58 59 60 60 61 61 62 62 63 63 64 64 64 65
16 17 19 20 21 22 21 21 21 21 22 23 24 25 26 26 26 27 27 27 26 26 26 27 27 28 28 29 30 30 30 30 30 30 31 31 31 31 32 32 33 34 34 36 37 37 38 38 39 39 39 40 41 41 42 43 43 44 45 46 47 48 49 51 52 53 55 56 57 58 59 59 60 60 61 61 62 63 63 64 64 64 65 65 65
16 17 18 20 21 21 22 21 21 21 22 23 23 24 25 25 25 25 26 27 27 27 27 27 27 28 28 29 29 29 29 29 29 29 30 30 30 30 31 32 32 33 33 35 36 36 37 38 39 39 40 40 41 42 43 43 44 45 46 47 48 49 51 52 54 55 56 57 58 59 60 60 61 62 63 64 64 65 65 65 65 65 66 67 67
18 18 18 20 21 21 21 21 21 21 22 23 23 24 25 25 24 25 25 26 27 28 28 29 29 29 28 29 29 28 28 29 29 29 30 30 30 30 31 32 32 33 33 34 35 36 37 38 39 40 40 41 42 43 44 45 45 46 47 49 50 52 53 55 56 57 58 59 60 61 62 63 64 65 65 66 67 67 67 67 67 67 67 68 70
20 19 19 20 21 21 22 21 21 21 21 22 23 24 25 26 25 25 25 26 27 28 29 29 29 30 29 29 29 28 28 29 29 30 30 31 31 31 32 32 33 33 34 35 36 37 38 39 40 40 41 42 44 45 46 47 48 49 50 51 53 54 56 57 58 59 60 61 63 64 65 66 67 67 68 68 68 68 68 68 68 68 69 71 72
22 22 22 22 23 23 23 22 22 22 22 22 23 23 25 26 27 27 27 27 28 29 29 30 29 30 30 30 30 30 30 30 31 31 32 32 33 34 34 34 35 35 36 37 38 38 39 41 41 42 43 44 46 47 48 49 51 52 54 55 56 57 58 59 60 62 63 64 65 66 67 68 68 69 69 69 69 69 69 69 70 71 72 73 75
25 25 24 24 24 25 24 24 24 24 23 23 23 23 24 26 28 28 29 29 29 30 30 31 31 31 31 31 31 32 32 32 33 33 34 35 36 36 37 38 38 38 39 39 40 41 42 43 44 45 46 47 48 50 51 52 54 55 56 58 59 60 61 62 63 64 65 66 67 68 69 69 69 70 70 70 70 70 70 71 72 73 75 76 78
26 27 27 26 26 27 27 27 27 27 26 25 24 24 25 26 28 29 31 31 31 32 32 32 33 33 33 33 33 33 34 34 35 36 36 37 38 39 40 41 41 42 42 43 43 44 45 46 47 48 49 51 52 53 55 56 57 58 59 60 61 62 63 64 65 66 67 68 69 69 70 70 70 71 71 71 71 71 72 73 74 76 78 79 81
26 27 28 27 27 28 28 28 29 29 29 29 28 27 27 27 28 30 32 32 33 33 33 33 33 34 35 35 34 35 36 36 37 38 38 39 40 41 42 43 44 45 45 46 47 47 48 49 50 51 53 54 55 56 57 58 59 60 61 61 63 64 65 66 67 68 69 69 70 71 71 72 72 72 72 72 72 73 74 75 77 79 81 82 84
27 28 29 28 28 28 29 29 30 30 30 31 31 30 30 29 29 30 32 34 34 34 35 34 34 35 36 37 36 36 37 38 39 39 40 41 42 43 44 45 46 47 48 48 49 50 51 51 53 54 55 56 57 58 59 60 61 62 62 63 64 65 66 67 68 69 70 71 72 72 73 73 73 73 73 73 74 75 76 78 80 82 84 85 87
29 30 31 30 29 30 30 30 30 31 31 32 32 33 33 33 32 31 32 34 35 35 36 36 36 35 36 38 39 38 38 39 40 41 42 42 43 45 46 47 48 49 50 51 51 52 53 53 54 55 56 57 58 59 60 61 62 63 64 65 66 67 68 69 70 71 72 72 73 74 74 74 74 74 74 75 76 77 79 81 83 85 86 87 88
31 31 32 32 32 31 31 31 31 31 32 33 34 34 34 35 35 34 34 35 36 37 37 38 38 38 38 39 40 40 40 41 42 43 43 44 45 46 48 49 49 50 51 52 53 53 54 55 55 56 57 59 60 61 62 62 64 65 66 67 68 69 70 71 71 72 73 74 74 75 75 75 75 75 76 77 78 79 81 83 84 86 87 89 90
33 33 33 34 34 33 33 33 32 33 33 34 35 35 35 35 36 37 36 36 37 38 39 39 40 41 41 40 41 42 43 43 44 45 45 46 47 48 49 50 51 52 53 54 54 55 56 56 57 58 59 60 61 62 63 64 66 67 68 69 70 71 71 72 73 73 74 75 75 76 76 76 76 76 77 78 79 81 82 84 86 87 89 90 91
35 35 35 36 36 35 35 35 34 34 34 34 35 36 36 35 36 38 39 38 38 39 40 41 41 42 43 43 43 44 45 45 46 47 48 48 49 50 51 52 53 54 55 55 56 57 58 58 59 60 61 62 63 64 65 66 68 69 70 71 72 72 73 73 74 74 75 75 76 76 76 77 77 77 78 79 80 82 84 85 87 89 90 92 92
37 37 37 37 37 36 36 36 35 35 35 36 36 37 37 37 37 39 40 40 40 40 41 42 42 43 44 45 45 46 47 47 48 49 49 50 51 52 52 54 55 56 57 57 58 59 60 60 61 62 64 65 66 67 68 69 70 71 72 73 73 74 74 74 75 75 75 75 76 76 76 77 77 78 79 80 82 84 86 88 89 90 91 92 92
37 38 38 38 39 39 38 37 37 37 37 38 38 38 38 38 39 40 41 42 42 42 42 43 43 44 45 47 48 48 49 49 50 51 52 53 54 54 55 56 57 58 59 60 60 61 62 63 64 65 66 67 68 69 70 71 71 72 73 74 74 74 74 74 74 74 75 75 76 76 77 77 78 79 80 82 84 86 87 88 89 90 91 92 93
38 38 38 39 40 40 39 39 38 38 39 39 40 40 40 41 41 41 42 44 44 45 45 45 45 45 46 47 49 50 50 51 52 53 54 55 56 57 57 58 59 60 61 62 62 63 64 65 66 67 68 69 70 70 71 72 72 73 74 74 74 74 74 74 75 75 75 75 76 77 78 79 80 81 82 83 85 86 88 89 90 91 91 92 93
40 39 39 40 41 41 41 40 40 40 40 40 40 41 42 43 43 43 44 45 46 47 47 47 47 47 48 48 50 51 52 52 54 55 56 57 58 59 59 60 61 62 63 63 64 65 66 66 67 68 69 70 71 71 72 72 73 73 73 74 74 75 75 75 75 75 75 76 77 78 80 81 82 83 84 85 86 88 89 89 90 91 91 92 93
41 41 41 41 41 41 42 42 41 41 41 40 40 41 42 44 45 45 45 46 47 48 48 49 49 50 50 50 51 52 53 54 55 56 57 58 59 60 61 62 62 63 64 65 65 66 67 68 69 69 70 71 71 71 71 71 72 72 73 74 75 75 75 75 76 76 77 77 79 80 81 82 83 85 86 87 88 89 89 90 90 91 92 93 95
41 42 42 41 42 42 42 42 42 42 41 41 41 41 42 44 45 46 46 46 47 48 49 49 50 51 52 52 53 53 54 55 56 57 58 59 60 61 62 62 63 64 65 65 66 67 68 69 69 70 70 70 70 70 70 71 72 73 74 75 75 75 76 76 77 78 79 79 80 81 82 84 86 87 88 88 89 89 90 90 91 92 94 95 97
42 42 41 41 41 42 42 42 42 42 41 41 41 41 42 43 44 45 45 45 46 47 48 49 50 51 52 53 54 54 54 55 56 57 58 59 60 61 62 62 63 64 65 66 67 67 68 68 69 69 69 69 69 70 71 72 73 73 74 75 76 77 78 79 79 80 81 81 82 84 85 87 88 89 89 89 89 90 91 92 93 94 96 98 99
41 41 41 41 41 41 42 42 42 42 42 41 41 41 42 43 44 44 45 45 46 47 47 48 49 50 52 53 54 54 55 55 56 57 58 59 60 61 61 62 63 64 65 66 66 67 67 68 68 68 68 69 70 71 72 72 72 73 74 76 77 79 80 81 81 82 83 84 85 86 87 88 89 89 90 90 90 91 92 93 95 96 98 100 101
40 40 40 40 41 41 41 41 42 42 42 42 42 42 42 43 44 44 45 45 46 46 47 48 49 50 51 52 53 53 54 55 56 57 58 59 60 60 61 62 63 64 65 65 66 66 67 67 68 68 69 70 71 72 72 72 73 74 76 78 79 80 81 82 83 84 86 86 87 88 88 89 89 90 90 91 91 92 93 95 97 99 101 102 103
Wind_Direction
213 212 212 210 210 213 212 211 212 214 217 219 222 224 226 229 233 235 237 240 242 244 245 247 248 250 251 252 253 253 254 254 254 255 257 260 262 263 264 266 267 263 260 259 258 258 259 261 262 262 262 263 264 265 267 268 268 266 265 264 263 261 259 258 257 256 255 254 255 255 255 256 256 257 258 258 259 260 261 262 263 264 265 266 267
216 214 214 212 213 216 215 213 215 217 218 220 223 226 228 231 233 234 237 240 243 245 246 247 248 250 252 254 256 257 258 259 259 259 260 262 263 263 263 265 267 265 261 260 260 259 259 260 261 262 263 263 263 265 266 269 271 269 267 265 264 263 261 260 260 259 258 257 257 257 257 258 258 258 259 259 260 261 261 262 263 265 266 267 268
217 216 215 215 215 218 220 217 216 219 221 224 226 228 231 233 235 236 238 241 245 248 249 250 249 251 252 255 258 260 262 263 263 263 263 264 264 264 265 265 266 266 262 261 261 260 259 259 260 261 262 264 264 265 266 268 270 271 269 267 265 264 263 262 262 262 261 261 260 260 260 260 260 260 261 261 261 262 263 264 265 266 267 268 269
217 217 216 216 217 220 222 221 219 220 225 229 230 232 234 236 238 239 241 244 247 250 252 253 254 253 255 258 260 262 263 264 265 265 265 265 266 266 266 266 266 266 264 263 263 262 261 260 260 261 262 264 265 266 267 268 269 270 270 269 268 266 265 265 264 264 264 264 264 263 263 263 263 263 263 264 264 264 265 266 267 268 269 270 271
218 218 218 218 219 220 222 223 223 224 227 232 234 235 237 238 240 242 244 247 249 252 254 256 257 257 261 264 263 263 263 264 265 266 267 266 266 266 266 266 266 266 265 265 265 264 263 262 261 261 262 263 265 266 267 268 269 269 270 270 270 269 268 267 266 266 266 267 267 267 266 265 265 265 265 265 266 266 267 268 269 270 271 272 273
218 220 221 221 221 221 222 224 226 227 230 234 235 236 238 240 242 245 248 250 253 256 258 259 261 262 267 271 269 269 269 269 269 269 270 269 268 266 265 265 266 267 266 267 266 266 265 264 263 261 262 262 264 265 266 267 268 269 270 271 271 271 270 269 269 269 269 269 270 270 270 269 268 268 268 267 268 268 269 269 270 271 273 273 274
220 221 223 224 223 224 225 226 228 230 233 236 236 238 239 242 245 249 252 254 257 260 261 263 265 266 270 272 270 270 271 271 272 272 272 272 271 270 268 267 267 267 267 268 267 266 265 264 264 262 262 262 262 264 265 266 267 269 270 270 271 271 271 271 271 271 272 272 272 273 273 273 273 272 271 270 269 269 270 270 271 272 273 274 275
223 223 225 225 225 227 227 228 230 232 234 236 238 240 242 244 246 250 253 256 259 262 263 265 267 268 270 271 270 270 270 270 270 271 271 272 272 272 271 269 268 267 267 267 267 265 264 263 263 263 262 262 262 263 264 265 266 268 268 269 270 270 270 270 270 271 271 272 272 272 273 274 274 273 273 271 270 270 270 271 271 272 272 273 274
227 226 227 226 226 228 229 231 232 233 234 237 240 243 245 247 249 252 255 258 261 262 263 265 268 270 270 271 270 270 270 270 269 270 270 271 272 271 270 268 267 266 266 265 265 264 263 262 263 263 262 263 263 264 265 266 267 268 268 269 269 270 270 271 271 271 271 271 271 271 271 271 271 272 272 271 270 269 269 269 270 270 271 272 273
231 230 230 230 229 230 231 232 233 234 237 240 244 246 249 250 253 255 258 261 262 263 264 266 269 270 270 270 270 270 271 270 270 270 271 272 272 271 270 269 267 266 265 264 263 263 263 262 262 262 262 263 264 265 267 268 268 269 269 270 270 271 272 272 272 273 272 272 272 272 271 271 271 272 272 271 271 270 270 270 270 270 271 272 274
232 233 232 233 233 233 234 235 236 238 241 243 247 249 251 253 255 257 258 261 263 264 266 267 269 270 270 270 270 270 270 270 271 272 272 272 272 272 271 270 268 266 265 264 263 263 263 263 263 263 263 264 265 266 267 268 268 269 269 270 271 272 273 274 274 274 275 275 275 275 274 274 274 274 274 274 274 273 273 273 273 273 274 275 276
234 234 234 234 234 235 237 239 239 241 243 245 248 252 254 255 257 258 259 261 264 265 267 268 269 270 271 271 271 271 271 271 271 272 272 272 272 272 272 271 269 267 266 264 263 263 263 263 263 263 264 265 266 266 267 268 268 268 269 270 271 272 273 274 274 275 275 276 276 277 277 277 277 277 278 278 278 277 277 276 276 277 277 278 279
236 235 235 235 235 236 237 239 241 243 244 245 248 252 254 256 258 260 261 262 265 266 266 267 268 269 270 271 270 270 270 270 271 271 271 271 272 272 273 272 270 268 267 265 264 264 263 263 263 263 264 265 266 267 268 268 269 269 269 270 271 271 272 273 273 274 275 276 277 278 278 279 279 279 280 280 280 280 280 279 279 280 280 281 282
238 238 238 237 237 237 238 239 241 242 244 245 248 251 253 255 258 261 262 262 263 264 264 265 266 267 268 269 269 269 269 269 270 270 270 270 271 272 272 272 271 269 267 266 265 265 265 265 265 265 266 266 267 268 269 269 269 269 270 270 271 272 273 274 275 275 276 277 278 278 279 279 279 280 280 280 281 281 281 281 281 281 282 282 282
233 236 238 239 240 240 241 242 243 243 244 246 248 250 252 255 257 259 260 261 261 262 263 264 265 267 268 269 269 269 269 269 269 269 269 269 269 270 270 271 270 269 268 267 266 266 266 266 266 267 267 268 268 269 270 270 271 271 271 272 272 273 274 275 276 277 277 278 278 279 279 279 280 280 280 281 281 281 281 281 281 281 281 281 281
232 233 234 236 238 239 242 244 245 246 247 248 249 251 252 254 255 256 258 259 261 262 263 264 266 267 269 269 270 270 270 269 269 268 268 267 267 267 268 268 268 268 268 267 267 267 267 268 268 268 269 269 270 270 271 271 272 272 272 273 273 274 275 275 276 277 277 278 278 279 279 279 280 280 280 280 280 279 279 279 279 279 279 280 280
236 236 237 236 236 236 238 240 243 245 247 249 250 251 252 253 255 256 258 260 262 263 264 266 268 270 272 273 274 274 273 272 270 270 270 269 269 268 268 268 268 269 269 269 269 269 269 269 269 270 270 270 271 271 272 272 272 272 273 273 274 274 275 276 276 277 277 278 278 278 278 278 278 278 278 278 278 278 278 278 278 278 278 278 279
242 242 242 242 241 240 239 239 240 242 244 247 248 250 252 253 255 257 259 261 264 267 268 270 272 274 275 276 276 276 275 274 273 273 273 273 273 271 271 270 269 269 269 269 269 269 270 270 270 270 270 271 271 271 271 272 272 272 273 274 274 275 276 276 277 277 277 277 277 278 278 277 277 277 277 277 277 278 278 278 278 278 278 278 278
246 246 247 247 248 248 247 247 247 248 249 250 251 253 255 256 257 259 262 264 268 271 273 275 276 276 276 276 275 275 275 275 275 274 274 274 273 272 270 269 269 268 268 268 268 269 269 270 270 270 270 271 271 271 272 272 273 273 274 274 275 276 276 276 277 277 277 278 278 278 278 278 278 278 278 278 279 279 279 279 280 280 280 280 280
250 250 250 251 252 254 255 257 258 259 260 260 260 260 261 263 264 266 267 269 271 273 275 276 276 276 275 274 275 275 275 275 275 275 274 273 272 271 270 269 269 269 268 269 269 269 269 269 270 270 271 272 272 273 273 274 274 275 275 275 276 276 277 277 278 278 279 279 279 279 279 279 279 280 280 280 280 281 281 281 281 282 282 282 282
256 256 255 255 255 256 258 261 263 265 267 268 268 268 269 270 271 272 274 274 274 275 275 275 275 274 274 274 275 276 276 276 275 274 274 274 274 274 273 273 272 272 272 272 272 272 272 272 272 273 274 274 274 274 275 275 275 276 276 277 277 278 278 279 279 280 280 280 280 280 280 280 280 281 281 281 282 282 282 282 283 283 283 283 284
261 262 262 261 260 260 262 263 265 267 268 269 271 272 272 274 276 277 278 279 279 278 278 278 278 278 277 277 278 277 277 275 275 275 275 275 276 276 276 276 276 276 276 276 276 276 276 276 276 276 276 276 276 276 276 276 277 277 277 278 279 279 280 280 281 281 281 281 281 281 282 282 282 282 283 283 283 283 284 284 284 285 285 286 286
264 266 268 269 268 267 267 267 267 268 268 269 270 271 273 274 276 278 280 280 281 281 281 282 282 282 282 281 281 280 279 278 278 278 278 277 277 277 278 278 278 278 278 278 278 278 278 278 277 277 277 276 277 277 277 278 278 279 279 280 281 282 282 283 283 283 282 282 283 283 283 283 283 284 284 284 285 285 285 285 286 286 286 287 287
269 268 269 271 272 273 272 271 270 270 270 270 270 271 272 274 276 278 279 280 281 282 283 283 284 284 284 284 284 283 283 283 282 281 281 280 280 280 281 281 282 281 281 281 280 280 280 280 280 279 279 279 279 280 280 280 281 282 283 283 284 284 284 284 284 284 283 283 284 284 284 284 284 284 285 285 285 286 286 286 286 286 287 287 287
275 273 271 271 272 274 275 274 274 273 273 273 273 273 274 275 276 277 278 278 279 280 281 282 283 284 285 285 285 286 286 286 285 284 283 282 282 282 282 283 283 283 283 283 282 282 282 281 281 281 281 281 282 282 282 283 283 283 284 284 284 284 284 284 284 283 284 284 285 285 285 285 286 286 286 287 287 288 288 288 288 288 288 288 288
277 277 275 274 273 274 275 276 276 276 275 275 276 276 277 277 277 277 278 278 279 279 280 281 281 282 283 284 285 285 286 286 285 285 284 284 283 283 283 283 283 283 283 283 282 281 280 280 281 281 282 282 283 283 284 284 284 284 284 284 284 284 284 284 284 284 285 286 286 286 287 287 288 288 289 289 290 290 290 290 289 289 289 289 289
276 277 276 275 274 274 275 275 276 277 278 278 279 279 280 281 281 280 280 280 281 281 281 281 281 281 282 282 283 283 284 284 284 284 284 284 284 284 284 283 284 284 283 282 282 281 281 281 281 281 282 282 283 283 282 282 283 283 283 283 284 284 284 285 285 286 287 287 288 288 288 289 289 290 290 290 290 290 290 290 290 290 290 290 290
272 274 276 276 274 273 273 274 275 275 276 278 280 281 283 284 283 283 283 283 283 283 284 284 283 282 282 282 282 282 282 282 282 283 282 282 282 282 282 282 283 283 283 283 283 283 282 282 282 282 282 282 282 282 282 282 282 283 283 284 284 285 286 287 287 288 288 288 289 289 290 290 290 290 290 290 290 290 290 290 290 290 290 289 289
269 272 275 277 277 275 273 273 274 275 274 275 278 280 282 283 284 284 284 284 284 285 285 285 285 284 284 284 283 283 282 282 282 281 281 281 281 280 280 281 281 281 282 282 282 282 283 283 283 283 283 283 283 284 284 284 285 285 286 287 288 288 288 288 288 288 288 289 289 289 289 289 289 289 289 289 289 289 289 289 288 288 288 287 287
270 270 273 275 277 278 277 276 276 277 277 276 277 279 280 282 284 286 286 286 286 286 286 286 286 286 286 286 285 285 284 283 282 282 281 282 282 282 282 282 281 281 281 281 281 282 282 283 283 283 284 284 284 284 285 285 286 287 287 288 288 288 287 287 287 287 287 287 287 288 287 288 288 288 288 288 288 288 288 288 287 287 287 287 287
273 273 274 275 276 277 279 279 278 278 279 279 279 279 280 281 283 284 286 288 288 288 288 287 287 286 286 286 285 285 285 284 284 283 283 283 284 284 285 284 284 284 284 284 284 284 284 284 284 285 285 285 285 285 285 286 286 286 286 286 286 286 286 285 286 286 286 286 286 286 287 287 287 288 288 288 288 288 288 288 288 288 288 289 289
276 274 274 275 276 278 278 279 279 279 279 280 281 281 281 281 281 282 283 285 287 288 288 288 288 288 287 286 285 285 284 284 284 285 285 285 285 286 286 286 287 287 287 287 287 286 286 286 286 286 286 286 285 285 285 285 286 285 285 285 285 285 285 284 285 285 286 286 287 287 287 288 288 288 288 289 289 289 290 290 290 290 290 291 292
279 277 276 276 277 278 278 278 278 277 277 279 280 281 282 283 283 282 282 283 284 285 286 287 288 289 289 288 287 286 286 286 286 286 287 288 288 288 288 288 289 289 289 289 288 288 287 287 287 286 286 285 285 285 286 286 285 285 285 284 284 285 285 286 287 287 288 289 289 289 289 289 290 290 290 291 291 292 292 292 292 292 292 293 294
285 283 281 281 280 280 280 279 278 277 276 277 278 280 282 283 284 284 283 283 283 283 285 286 287 288 289 290 290 290 290 289 290 290 290 291 291 291 291 290 291 291 290 289 288 288 287 287 287 286 285 285 284 284 284 284 285 285 286 286 287 287 288 289 289 290 290 290 290 290 290 291 292 292 292 293 293 294 294 293 294 294 294 295 295
290 289 288 287 286 285 284 284 283 282 280 279 279 279 280 282 283 284 285 285 285 285 286 288 289 290 291 291 292 293 293 293 294 294 294 294 293 293 293 293 293 292 291 290 289 288 288 287 287 286 286 285 285 285 285 286 286 287 288 289 290 290 290 291 291 291 291 291 291 292 293 294 294 295 295 295 295 295 294 294 294 295 295 295 295
290 290 290 290 289 289 289 290 289 288 287 285 282 281 280 281 283 285 285 287 287 288 289 291 292 293 293 293 294 295 294 295 295 295 295 294 294 294 294 294 294 293 292 291 290 290 289 288 288 288 288 288 288 288 289 289 290 290 290 290 291 291 291 292 292 292 292 293 294 294 295 296 296 296 296 296 295 295 294 294 294 295 295 295 295
287 287 287 287 288 289 290 290 290 290 290 289 287 284 282 282 283 284 286 287 288 289 290 291 292 293 293 293 294 294 294 295 295 294 294 293 293 293 293 293 292 292 291 291 290 290 290 290 289 289 289 289 290 290 290 290 291 291 291 291 291 292 292 293 293 294 294 295 295 296 296 296 296 296 296 296 295 295 295 294 294 294 294 294 295
284 284 285 287 288 287 287 287 287 288 289 289 288 286 285 283 283 283 285 287 288 289 290 290 291 291 292 292 292 292 293 293 293 293 293 292 292 291 291 291 290 290 290 290 290 290 290 290 289 289 289 290 290 290 290 291 291 291 292 292 293 293 294 294 295 295 296 296 296 296 296 296 296 296 296 295 295 294 294 293 293 294 295 295 296
284 285 287 288 287 286 287 287 287 286 286 285 285 286 286 286 285 284 285 286 288 288 289 289 289 289 290 291 292 292 292 292 292 292 292 291 291 290 290 289 289 289 289 289 289 289 290 290 289 289 290 290 290 291 291 291 292 292 292 293 294 294 294 295 295 296 296 296 296 295 295 295 295 295 295 294 294 293 293 294 294 295 296 296 297
285 286 287 287 287 288 288 288 286 284 284 284 284 285 286 287 287 287 286 286 286 287 288 289 289 289 289 290 290 291 292 291 291 291 290 290 290 289 289 289 289 289 289 289 290 290 290 290 290 290 291 291 292 292 292 292 292 292 293 293 294 294 294 295 295 295 295 294 294 294 294 294 294 294 293 293 293 293 294 294 295 296 296 296 296
287 286 286 287 289 289 288 286 285 284 284 284 284 285 285 286 287 287 287 286 286 286 287 287 288 289 289 289 289 290 290 290 290 290 289 289 289 289 289 289 289 289 289 289 290 290 290 290 291 291 291 291 292 292 292 292 292 292 293 293 293 294 294 294 293 293 293 293 293 293 293 293 293 293 293 293 294 294 295 295 295 296 296 296 296
288 288 288 289 289 288 287 286 286 286 286 285 285 285 285 285 285 285 285 285 284 285 285 286 286 286 287 287 287 287 288 288 288 288 288 289 288 288 288 288 289 289 289 290 290 290 290 290 290 291 291 291 291 291 292 292 292 292 292 293 293 293 293 292 292 292 293 293 293 293 293 293 293 293 293 294 294 295 295 295 295 295 295 295 295
288 288 289 288 287 286 285 286 287 286 286 285 285 285 285 285 284 284 284 284 284 283 283 283 284 285 285 286 286 286 286 286 286 287 287 287 288 288 288 288 288 288 289 289 289 289 289 289 290 290 290 291 291 291 291 292 292 292 292 292 292 292 292 292 292 293 293 293 293 293 293 293 293 294 294 295 295 295 295 295 295 295 295 294 294
286 287 287 287 285 285 285 286 286 286 286 285 285 286 286 285 285 284 284 284 284 284 283 283 283 284 284 285 285 285 285 285 286 286 286 286 286 287 287 287 287 287 287 287 288 288 289 289 290 290 290 290 291 291 291 291 292 291 291 291 291 292 292 292 293 293 293 293 293 293 293 294 294 294 295 295 295 295 295 294 294 294 294 294 294
285 285 285 284 284 285 286 286 286 285 285 285 286 286 286 285 285 284 284 284 284 284 284 284 284 283 283 283 283 284 284 285 285 285 285 285 286 286 286 286 286 286 287 287 288 288 289 289 289 290 290 290 290 290 291 291 291 291 291 291 292 292 293 293 293 293 293 293 294 294 294 294 294 294 295 295 295 294 294 294 294 294 294 294 295
286 285 284 284 284 286 287 287 287 287 286 286 286 286 285 285 285 285 284 284 284 285 285 285 285 284 283 282 282 283 283 284 284 284 284 284 285 285 285 285 286 286 287 287 288 288 288 288 289 289 289 289 290 290 290 290 290 291 291 292 292 292 293 293 293 293 294 294 294 294 294 294 294 294 294 294 294 294 294 294 294 294 294 295 295
287 287 287 286 287 288 288 289 289 289 289 290 289 289 288 288 288 288 287 286 286 286 286 286 285 285 284 283 282 283 283 283 283 283 284 284 284 284 284 285 285 286 287 287 287 287 288 288 288 289 289 289 290 290 290 290 291 291 292 292 293 293 294 294 294 294 294 294 294 293 294 294 294 294 294 294 294 294 294 294 294 294 295 295 296
289 289 289 290 290 290 291 291 291 292 292 293 292 292 291 290 290 289 289 289 288 288 288 287 287 286 285 284 283 283 283 283 283 283 284 284 284 284 284 285 286 286 287 287 287 287 287 288 288 289 289 289 289 290 290 291 291 292 292 293 293 294 294 295 294 294 294 294 293 293 293 293 294 294 294 294 294 294 294 294 295 295 296 296 297
291 291 292 292 292 292 293 293 293 293 294 293 292 292 291 290 289 289 289 289 289 289 289 288 287 287 286 285 285 285 284 284 284 284 284 284 284 284 285 285 286 286 286 286 287 287 288 288 288 288 289 289 290 290 291 291 292 292 293 293 294 295 295 295 294 294 294 293 293 293 293 294 294 294 294 294 294 294 295 296 297 297 297 297 297
293 293 294 294 294 294 293 293 293 293 293 292 291 290 290 289 289 289 290 290 289 289 289 289 288 288 287 287 287 287 287 286 286 285 285 285 285 285 285 286 286 286 286 286 287 287 288 288 288 288 289 289 290 291 291 291 292 293 294 294 295 295 295 294 294 294 293 293 293 294 294 294 294 294 295 295 295 296 297 297 297 297 297 297 297
294 295 295 295 295 295 294 294 293 293 293 292 292 291 291 291 291 292 292 292 291 291 290 289 289 289 288 288 289 289 288 288 288 287 287 286 286 286 286 286 286 287 287 287 287 287 287 288 288 289 289 290 290 291 291 292 292 293 294 294 294 294 294 294 294 293 293 293 294 294 294 294 295 295 296 297 297 298 298 298 297 297 297 298 298
Height
10863 10864 10864 10865 10866 10867 10869 10870 10870 10869 10870 10870 10870 10870 10870 10871 10872 10873 10875 10876 10877 10878 10879 10880 10881 10882 10884 10885 10886 10887 10888 10889 10889 10890 10890 10890 10890 10891 10891 10892 10892 10893 10894 10895 10896 10897 10898 10899 10900 10900 10901 10901 10902 10902 10902 10903 10903 10903 10903 10903 10903 10902 10902 10902 10901 10901 10900 10900 10900 10900 10900 10900 10900 10900 10899 10899 10899 10899 10898 10898 10897 10897 10896 10896 10895
10862 10863 10863 10864 10864 10865 10868 10869 10869 10869 10869 10869 10868 10868 10869 10869 10870 10871 10872 10874 10875 10876 10878 10879 10880 10880 10881 10883 10884 10885 10885 10886 10886 10887 10887 10887 10887 10888 10888 10889 10889 10890 10891 10892 10893 10894 10895 10896 10896 10896 10897 10898 10898 10898 10898 10899 10899 10899 10899 10899 10899 10898 10898 10898 10897 10897 10896 10896 10896 10896 10896 10896 10896 10896 10896 10895 10895 10895 10894 10893 10893 10892 10891 10891 10890
10861 10862 10862 10863 10864 10864 10866 10868 10869 10868 10867 10866 10866 10867 10867 10868 10869 10870 10871 10872 10873 10875 10876 10877 10878 10878 10879 10881 10882 10882 10883 10883 10883 10884 10884 10884 10885 10885 10886 10886 10887 10887 10887 10888 10889 10890 10892 10893 10893 10893 10894 10894 10894 10894 10894 10895 10895 10895 10894 10894 10894 10894 10894 10893 10893 10893 10892 10893 10893 10894 10893 10893 10893 10892 10892 10891 10891 10890 10890 10889 10888 10887 10887 10886 10885
10859 10861 10862 10862 10862 10863 10864 10866 10867 10866 10864 10864 10865 10866 10866 10867 10868 10868 10869 10870 10871 10872 10873 10874 10875 10876 10877 10878 10879 10879 10880 10880 10880 10881 10881 10881 10882 10882 10883 10884 10884 10884 10885 10885 10886 10887 10888 10889 10889 10889 10890 10890 10890 10890 10890 10891 10891 10890 10890 10890 10890 10890 10890 10890 10890 10889 10889 10889 10890 10890 10890 10889 10889 10889 10888 10887 10887 10886 10886 10885 10884 10883 10882 10881 10880
10857 10858 10860 10861 10861 10862 10862 10863 10864 10864 10862 10863 10865 10865 10866 10866 10866 10867 10867 10868 10869 10870 10871 10872 10873 10874 10874 10875 10876 10875 10876 10876 10876 10877 10878 10878 10879 10879 10880 10881 10881 10881 10882 10882 10882 10883 10884 10885 10885 10885 10886 10886 10886 10886 10886 10886 10887 10886 10887 10887 10887 10886 10886 10886 10886 10885 10885 10886 10887 10886 10885 10885 10885 10885 10884 10883 10882 10882 10881 10880 10879 10878 10877 10876 10875
10855 10856 10857 10858 10859 10860 10860 10860 10860 10861 10860 10861 10863 10864 10864 10864 10865 10865 10866 10866 10867 10868 10869 10870 10871 10871 10871 10872 10871 10871 10871 10872 10872 10873 10874 10874 10875 10876 10877 10877 10878 10878 10878 10878 10879 10879 10879 10880 10880 10881 10881 10882 10882 10882 10882 10882 10883 10883 10883 10883 10883 10882 10882 10882 10882 10881 10881 10882 10882 10881 10880 10880 10880 10880 10878 10878 10877 10877 10876 10875 10874 10873 10872 10871 10870
10854 10855 10855 10856 10857 10858 10858 10858 10858 10858 10858 10859 10861 10861 10862 10862 10863 10863 10864 10865 10866 10866 10867 10868 10868 10869 10869 10868 10868 10867 10867 10868 10868 10868 10869 10870 10870 10872 10873 10873 10874 10874 10873 10874 10874 10874 10875 10875 10875 10876 10877 10877 10878 10878 10878 10879 10879 10879 10879 10879 10879 10878 10878 10877 10877 10877 10877 10877 10877 10876 10875 10875 10875 10874 10873 10872 10872 10871 10870 10870 10869 10868 10867 10866 10865
10852 10853 10854 10855 10856 10856 10856 10856 10857 10857 10857 10858 10859 10859 10860 10860 10861 10861 10862 10863 10864 10865 10865 10866 10866 10866 10866 10865 10865 10864 10864 10864 10864 10864 10865 10865 10866 10867 10868 10868 10869 10869 10868 10868 10869 10869 10870 10870 10871 10872 10873 10873 10873 10873 10874 10874 10875 10875 10875 10875 10874 10874 10873 10873 10873 10873 10873 10872 10872 10871 10871 10870 10870 10869 10868 10867 10867 10866 10865 10864 10864 10863 10862 10862 10861
10850 10851 10852 10854 10855 10855 10855 10855 10856 10857 10857 10857 10857 10858 10858 10858 10859 10860 10861 10862 10863 10863 10863 10863 10864 10863 10863 10862 10861 10861 10861 10861 10861 10861 10861 10861 10862 10862 10863 10863 10863 10863 10863 10863 10863 10864 10864 10865 10866 10867 10868 10869 10869 10869 10869 10869 10870 10870 10871 10871 10870 10870 10869 10869 10869 10868 10868 10867 10867 10866 10866 10865 10865 10864 10863 10862 10862 10862 10860 10859 10859 10858 10857 10856 10855
10848 10849 10850 10852 10853 10853 10853 10854 10855 10855 10856 10856 10856 10857 10857 10857 10858 10859 10860 10860 10861 10861 10861 10860 10860 10860 10859 10859 10858 10858 10857 10857 10857 10857 10857 10857 10858 10858 10858 10858 10858 10858 10858 10858 10858 10859 10859 10860 10861 10862 10863 10864 10865 10864 10864 10864 10864 10865 10865 10866 10865 10865 10864 10864 10863 10863 10863 10862 10861 10861 10860 10860 10859 10859 10858 10857 10857 10857 10856 10854 10853 10853 10852 10851 10850
10847 10848 10849 10850 10851 10851 10851 10852 10853 10854 10855 10855 10855 10855 10856 10856 10857 10858 10858 10858 10858 10858 10857 10857 10856 10855 10855 10855 10854 10854 10854 10854 10854 10854 10854 10854 10853 10853 10853 10854 10854 10854 10854 10854 10854 10854 10855 10856 10857 10857 10858 10859 10860 10860 10859 10859 10859 10860 10860 10861 10860 10860 10859 10858 10858 10858 10857 10857 10856 10855 10855 10854 10854 10853 10853 10852 10852 10852 10851 10849 10848 10847 10846 10846 10844
10846 10846 10848 10848 10849 10850 10850 10851 10852 10853 10853 10854 10854 10854 10854 10855 10855 10855 10856 10855 10855 10854 10853 10853 10852 10852 10852 10851 10851 10851 10850 10850 10850 10851 10851 10850 10850 10849 10849 10849 10849 10849 10849 10849 10850 10850 10851 10851 10852 10853 10853 10854 10855 10855 10855 10855 10855 10855 10855 10855 10855 10855 10854 10853 10852 10852 10852 10851 10850 10850 10849 10849 10848 10848 10847 10846 10845 10845 10845 10844 10842 10841 10840 10839 10838
10844 10845 10846 10847 10848 10848 10849 10850 10851 10851 10852 10852 10852 10852 10852 10852 10852 10852 10852 10852 10851 10850 10849 10849 10848 10848 10848 10848 10847 10847 10847 10847 10847 10847 10847 10847 10846 10846 10845 10845 10845 10845 10845 10845 10845 10846 10846 10847 10848 10848 10849 10849 10850 10850 10850 10850 10850 10850 10850 10850 10850 10849 10849 10848 10847 10847 10847 10846 10845 10844 10844 10843 10843 10842 10841 10840 10839 10839 10838 10837 10836 10835 10834 10833 10832
10843 10844 10844 10845 10846 10847 10848 10848 10849 10849 10850 10850 10850 10850 10850 10850 10849 10849 10849 10848 10847 10847 10846 10846 10845 10845 10845 10844 10844 10844 10844 10843 10843 10843 10843 10843 10843 10842 10842 10842 10841 10841 10841 10841 10841 10842 10842 10843 10843 10843 10844 10844 10845 10845 10845 10845 10845 10844 10844 10845 10844 10844 10844 10843 10842 10841 10841 10840 10840 10839 10838 10837 10837 10836 10835 10834 10833 10833 10832 10831 10830 10829 10827 10826 10825
10842 10842 10843 10843 10844 10844 10845 10845 10846 10846 10847 10847 10848 10847 10847 10847 10846 10846 10846 10845 10845 10844 10843 10843 10842 10842 10842 10841 10841 10841 10841 10841 10840 10840 10840 10840 10840 10839 10839 10838 10838 10838 10837 10838 10838 10838 10838 10838 10838 10839 10839 10839 10840 10840 10840 10840 10840 10840 10839 10839 10839 10839 10839 10838 10837 10836 10835 10835 10834 10833 10832 10832 10832 10831 10830 10829 10828 10827 10826 10825 10824 10823 10821 10819 10818
10840 10841 10841 10841 10842 10842 10843 10843 10843 10844 10844 10844 10845 10845 10844 10844 10844 10844 10843 10843 10842 10841 10841 10840 10839 10839 10839 10839 10839 10838 10838 10838 10838 10837 10837 10837 10836 10836 10835 10835 10834 10834 10834 10834 10834 10834 10834 10834 10834 10834 10835 10835 10836 10836 10836 10836 10835 10835 10835 10834 10834 10833 10833 10832 10831 10830 10830 10829 10829 10828 10827 10827 10827 10826 10825 10823 10823 10821 10820 10819 10818 10816 10815 10813 10812
10839 10839 10839 10840 10840 10841 10841 10841 10841 10842 10842 10842 10842 10842 10842 10842 10842 10842 10841 10840 10840 10839 10839 10838 10837 10837 10837 10837 10836 10836 10836 10835 10835 10834 10833 10833 10833 10833 10833 10832 10832 10831 10831 10831 10831 10831 10831 10830 10830 10830 10831 10831 10831 10831 10831 10831 10831 10830 10830 10829 10828 10828 10828 10827 10827 10826 10825 10825 10824 10823 10823 10822 10821 10820 10819 10817 10816 10815 10814 10813 10811 10810 10809 10807 10806
10837 10837 10838 10838 10838 10839 10839 10840 10840 10840 10840 10840 10840 10840 10840 10840 10839 10839 10839 10838 10837 10837 10836 10836 10835 10835 10835 10834 10834 10833 10833 10833 10832 10832 10830 10830 10830 10830 10830 10830 10829 10829 10828 10828 10828 10827 10827 10827 10827 10827 10827 10827 10827 10827 10827 10827 10826 10826 10825 10824 10824 10823 10823 10823 10822 10821 10821 10820 10819 10818 10818 10817 10816 10815 10813 10812 10810 10809 10808 10807 10805 10804 10803 10802 10800
10835 10835 10835 10836 10836 10836 10836 10837 10837 10837 10838 10838 10837 10837 10836 10836 10836 10836 10836 10836 10835 10834 10833 10833 10832 10832 10832 10831 10830 10830 10830 10830 10830 10830 10829 10828 10828 10827 10827 10827 10826 10826 10825 10825 10825 10825 10824 10824 10823 10823 10823 10823 10823 10823 10822 10822 10822 10821 10821 10820 10820 10819 10819 10818 10817 10817 10816 10815 10814 10813 10812 10811 10810 10808 10807 10806 10805 10803 10802 10801 10799 10798 10797 10796 10795
10833 10833 10833 10834 10834 10834 10834 10834 10834 10834 10834 10834 10833 10833 10833 10832 10832 10832 10833 10833 10832 10832 10831 10830 10830 10829 10829 10828 10828 10828 10828 10828 10828 10827 10826 10825 10824 10824 10824 10824 10824 10823 10823 10822 10822 10822 10821 10821 10820 10820 10819 10819 10819 10819 10818 10818 10817 10817 10817 10816 10815 10815 10814 10814 10813 10812 10811 10811 10809 10808 10807 10805 10804 10803 10801 10800 10799 10798 10796 10795 10793 10792 10791 10790 10789
10830 10831 10831 10831 10832 10832 10832 10832 10832 10831 10831 10830 10830 10829 10829 10829 10829 10829 10829 10829 10829 10829 10828 10828 10827 10827 10826 10826 10826 10826 10826 10826 10826 10825 10824 10823 10822 10821 10820 10821 10821 10820 10820 10819 10819 10818 10818 10817 10817 10816 10816 10816 10815 10815 10815 10814 10814 10813 10813 10812 10811 10811 10810 10810 10809 10808 10807 10806 10804 10803 10801 10800 10798 10797 10796 10795 10793 10792 10791 10789 10788 10787 10785 10784 10783
10828 10828 10828 10828 10829 10829 10830 10830 10830 10829 10828 10828 10827 10826 10826 10826 10826 10826 10826 10826 10826 10825 10825 10825 10824 10824 10824 10824 10824 10824 10823 10823 10823 10822 10822 10821 10819 10818 10817 10817 10817 10817 10817 10817 10816 10815 10814 10814 10814 10813 10813 10812 10812 10811 10811 10811 10810 10810 10809 10808 10808 10807 10806 10805 10804 10802 10801 10800 10799 10798 10796 10795 10793 10792 10791 10790 10788 10787 10785 10784 10782 10781 10779 10778 10777
10825 10825 10825 10825 10825 10826 10827 10827 10827 10827 10826 10825 10825 10824 10824 10824 10823 10823 10823 10823 10822 10822 10822 10822 10821 10821 10821 10821 10821 10821 10820 10820 10820 10820 10819 10818 10817 10816 10815 10814 10814 10814 10814 10814 10813 10812 10811 10811 10810 10810 10810 10809 10809 10808 10808 10807 10807 10806 10805 10805 10804 10803 10801 10800 10799 10797 10796 10795 10794 10793 10791 10789 10788 10787 10786 10784 10783 10781 10780 10779 10777 10775 10774 10772 10770
10822 10822 10822 10822 10822 10823 10823 10824 10824 10823 10823 10823 10822 10822 10822 10822 10822 10821 10821 10820 10820 10819 10819 10819 10818 10817 10817 10817 10818 10817 10817 10816 10817 10816 10816 10815 10814 10813 10812 10811 10811 10811 10811 10810 10810 10809 10808 10807 10807 10806 10806 10806 10806 10805 10805 10804 10803 10802 10801 10800 10799 10798 10797 10795 10793 10792 10791 10790 10789 10787 10786 10784 10783 10782 10781 10779 10778 10776 10775 10773 10772 10770 10769 10767 10765
10819 10819 10820 10820 10820 10820 10820 10820 10820 10820 10820 10819 10819 10819 10819 10819 10819 10819 10818 10818 10817 10817 10817 10816 10816 10815 10814 10814 10814 10814 10814 10813 10813 10813 10813 10812 10811 10810 10809 10809 10808 10807 10807 10807 10806 10805 10805 10804 10803 10803 10802 10802 10802 10801 10801 10800 10799 10798 10797 10796 10794 10793 10792 10790 10788 10787 10786 10785 10783 10782 10781 10779 10778 10777 10775 10774 10773 10771 10769 10768 10766 10765 10763 10762 10760
10816 10816 10817 10817 10817 10818 10817 10817 10817 10817 10817 10816 10816 10815 10816 10817 10817 10817 10816 10816 10815 10815 10815 10814 10813 10812 10811 10811 10811 10811 10810 10810 10809 10809 10809 10809 10808 10807 10807 10806 10805 10804 10804 10803 10802 10802 10801 10800 10799 10799 10798 10798 10798 10797 10796 10795 10794 10793 10792 10791 10790 10789 10787 10786 10784 10782 10781 10780 10779 10777 10776 10774 10773 10771 10770 10769 10768 10766 10764 10762 10760 10759 10757 10755 10753
10814 10813 10813 10814 10815 10815 10815 10815 10815 10814 10813 10813 10812 10812 10812 10813 10813 10813 10813 10813 10812 10812 10812 10811 10811 10810 10809 10808 10808 10808 10808 10807 10806 10806 10806 10805 10805 10804 10803 10802 10802 10801 10800 10799 10799 10798 10797 10797 10796 10795 10795 10794 10794 10793 10792 10791 10790 10789 10788 10787 10785 10784 10783 10781 10780 10778 10777 10775 10774 10772 10771 10769 10768 10766 10765 10764 10762 10761 10758 10756 10754 10752 10751 10748 10746
10812 10811 10811 10811 10811 10812 10812 10812 10812 10812 10811 10810 10809 10809 10809 10809 10809 10809 10809 10809 10809 10809 10809 10808 10808 10807 10807 10806 10805 10805 10805 10804 10803 10803 10802 10802 10802 10801 10800 10799 10798 10797 10796 10795 10795 10794 10794 10793 10792 10792 10791 10790 10789 10788 10787 10786 10785 10785 10784 10783 10781 10780 10779 10777 10776 10774 10772 10771 10769 10768 10766 10765 10763 10761 10759 10758 10757 10755 10753 10750 10748 10745 10744 10742 10740
10811 10810 10808 10808 10808 10808 10809 10809 10809 10809 10809 10808 10807 10806 10806 10806 10805 10805 10805 10806 10806 10805 10805 10805 10805 10804 10804 10803 10802 10802 10802 10801 10801 10800 10799 10799 10799 10798 10797 10796 10796 10795 10793 10792 10791 10791 10790 10789 10788 10788 10787 10786 10785 10784 10783 10782 10781 10780 10779 10778 10777 10775 10774 10773 10771 10769 10768 10766 10764 10763 10761 10759 10758 10756 10754 10752 10751 10749 10747 10745 10742 10740 10738 10736 10734
10809 10808 10807 10806 10805 10805 10805 10806 10806 10806 10805 10805 10804 10804 10803 10803 10802 10802 10802 10802 10802 10802 10802 10802 10801 10801 10800 10800 10799 10799 10798 10798 10797 10797 10796 10796 10795 10795 10794 10793 10793 10792 10791 10790 10788 10787 10786 10786 10785 10784 10783 10782 10781 10780 10779 10778 10777 10776 10775 10774 10773 10771 10769 10768 10767 10765 10763 10761 10760 10758 10756 10754 10752 10750 10749 10747 10745 10743 10741 10739 10736 10734 10731 10729 10727
10806 10806 10805 10804 10803 10803 10802 10802 10803 10802 10802 10801 10801 10800 10800 10800 10800 10799 10798 10798 10797 10797 10798 10797 10797 10797 10797 10796 10796 10795 10795 10794 10793 10793 10792 10792 10792 10791 10790 10790 10789 10788 10788 10786 10785 10784 10783 10782 10781 10780 10779 10778 10777 10776 10775 10774 10773 10772 10771 10769 10768 10766 10765 10763 10762 10760 10758 10756 10754 10752 10750 10749 10747 10745 10743 10741 10738 10736 10734 10732 10730 10727 10724 10721 10719
10803 10803 10802 10801 10801 10801 10800 10800 10800 10799 10799 10798 10797 10797 10796 10796 10796 10796 10795 10795 10794 10793 10794 10793 10793 10793 10793 10792 10792 10792 10791 10790 10790 10789 10788 10788 10788 10787 10787 10786 10785 10784 10784 10783 10782 10781 10780 10779 10777 10776 10775 10774 10773 10771 10770 10769 10768 10767 10766 10764 10763 10761 10760 10758 10756 10755 10753 10751 10749 10747 10744 10742 10740 10738 10736 10734 10731 10729 10727 10724 10722 10719 10716 10713 10710
10800 10800 10799 10799 10798 10798 10798 10797 10797 10797 10796 10796 10795 10794 10793 10792 10792 10792 10792 10792 10791 10790 10790 10790 10789 10789 10788 10788 10788 10787 10787 10786 10786 10785 10784 10784 10783 10783 10783 10782 10781 10781 10780 10779 10778 10777 10776 10774 10773 10772 10771 10770 10768 10767 10765 10764 10763 10762 10761 10759 10758 10756 10754 10752 10751 10749 10747 10745 10742 10740 10737 10735 10733 10731 10728 10726 10723 10721 10718 10715 10713 10710 10708 10705 10702
10796 10796 10796 10796 10795 10795 10795 10795 10794 10794 10794 10794 10793 10792 10791 10789 10788 10788 10788 10788 10788 10787 10787 10786 10786 10786 10784 10784 10783 10783 10782 10782 10781 10780 10780 10779 10779 10778 10777 10777 10777 10776 10776 10775 10774 10772 10771 10770 10769 10768 10767 10766 10764 10762 10761 10759 10758 10756 10755 10753 10752 10750 10748 10746 10744 10742 10740 10737 10735 10732 10730 10727 10725 10723 10720 10717 10715 10712 10709 10706 10703 10701 10698 10696 10693
10793 10793 10793 10792 10791 10790 10790 10790 10790 10791 10791 10791 10790 10789 10788 10787 10785 10784 10784 10784 10784 10783 10783 10782 10782 10782 10781 10780 10779 10778 10777 10777 10776 10776 10775 10774 10774 10773 10772 10771 10771 10771 10770 10769 10768 10768 10766 10765 10763 10762 10761 10760 10759 10757 10756 10754 10753 10751 10749 10747 10745 10743 10741 10739 10737 10735 10732 10730 10727 10724 10722 10719 10717 10714 10711 10709 10706 10703 10700 10697 10695 10692 10689 10686 10684
10791 10790 10790 10789 10788 10787 10786 10786 10786 10785 10786 10786 10786 10786 10785 10784 10782 10781 10780 10779 10779 10779 10779 10778 10777 10777 10776 10775 10775 10774 10773 10772 10772 10771 10770 10770 10769 10768 10767 10766 10765 10765 10764 10763 10763 10762 10761 10759 10758 10757 10755 10754 10752 10751 10749 10747 10746 10744 10742 10740 10738 10736 10734 10732 10729 10727 10724 10722 10719 10716 10714 10711 10708 10706 10703 10701 10698 10695 10692 10689 10686 10683 10680 10677 10674
10789 10788 10787 10787 10787 10785 10784 10783 10782 10781 10781 10781 10781 10781 10780 10780 10779 10778 10776 10775 10775 10775 10774 10775 10774 10772 10771 10771 10771 10770 10769 10768 10767 10767 10766 10765 10764 10763 10762 10761 10760 10759 10759 10758 10757 10756 10755 10754 10752 10751 10749 10748 10746 10744 10742 10740 10739 10737 10735 10733 10731 10729 10727 10724 10722 10719 10717 10714 10711 10708 10706 10703 10700 10698 10695 10692 10689 10686 10683 10680 10677 10674 10671 10668 10665
10786 10785 10785 10785 10785 10784 10783 10782 10780 10779 10778 10777 10776 10776 10776 10776 10775 10775 10773 10772 10771 10771 10770 10770 10770 10769 10767 10766 10766 10766 10765 10764 10763 10762 10762 10761 10760 10759 10758 10757 10755 10754 10753 10752 10752 10751 10750 10749 10747 10745 10744 10742 10741 10739 10737 10734 10732 10730 10728 10726 10724 10722 10719 10717 10714 10712 10709 10706 10704 10701 10698 10695 10693 10690 10687 10684 10681 10678 10674 10671 10668 10665 10661 10658 10655
10783 10782 10782 10782 10782 10781 10780 10779 10778 10777 10775 10774 10773 10772 10772 10771 10771 10771 10770 10768 10767 10767 10766 10765 10765 10765 10764 10762 10761 10761 10761 10760 10759 10758 10757 10756 10755 10754 10753 10752 10751 10750 10748 10747 10746 10746 10744 10743 10742 10740 10738 10736 10735 10733 10731 10728 10726 10723 10721 10719 10717 10715 10712 10710 10707 10704 10702 10699 10696 10693 10691 10688 10685 10683 10680 10677 10673 10670 10666 10663 10659 10655 10652 10648 10645
10780 10779 10778 10777 10777 10777 10776 10776 10775 10774 10772 10771 10770 10769 10768 10767 10766 10767 10767 10765 10764 10762 10761 10760 10760 10759 10760 10759 10757 10756 10756 10755 10754 10754 10753 10752 10751 10749 10748 10746 10746 10745 10743 10742 10741 10740 10739 10737 10736 10734 10732 10730 10728 10726 10724 10722 10719 10717 10715 10712 10710 10708 10705 10703 10700 10697 10695 10692 10689 10686 10683 10680 10678 10675 10672 10669 10665 10662 10658 10654 10651 10647 10643 10640 10636
10776 10775 10774 10773 10773 10773 10772 10771 10771 10770 10769 10768 10767 10765 10765 10764 10762 10761 10762 10761 10760 10758 10757 10756 10755 10754 10753 10754 10753 10751 10751 10750 10749 10748 10747 10747 10746 10745 10743 10741 10740 10739 10738 10736 10735 10734 10733 10731 10729 10728 10726 10724 10722 10720 10718 10715 10713 10710 10708 10705 10703 10701 10698 10696 10693 10690 10687 10684 10681 10678 10675 10672 10670 10667 10664 10661 10658 10654 10650 10646 10643 10639 10636 10632 10628
10771 10771 10770 10769 10768 10768 10767 10767 10767 10766 10765 10765 10763 10762 10761 10761 10760 10758 10757 10757 10756 10755 10753 10752 10751 10750 10748 10748 10748 10747 10746 10745 10744 10743 10742 10741 10740 10739 10738 10736 10734 10733 10732 10731 10729 10728 10727 10725 10723 10721 10719 10717 10715 10713 10711 10708 10706 10703 10700 10698 10695 10693 10690 10688 10686 10683 10680 10677 10674 10671 10668 10665 10662 10659 10656 10653 10650 10646 10642 10638 10634 10631 10627 10623 10619
10767 10766 10766 10765 10764 10763 10763 10762 10762 10762 10761 10760 10759 10758 10758 10757 10757 10754 10752 10752 10751 10751 10750 10748 10747 10746 10744 10743 10743 10742 10740 10739 10738 10737 10736 10735 10733 10733 10732 10731 10729 10727 10726 10724 10723 10722 10720 10718 10716 10714 10712 10710 10708 10705 10703 10700 10698 10695 10692 10689 10687 10684 10682 10680 10678 10675 10672 10669 10666 10663 10660 10657 10654 10651 10648 10645 10641 10637 10633 10629 10625 10621 10617 10613 10609
10764 10763 10762 10761 10759 10759 10759 10758 10758 10758 10756 10756 10755 10754 10753 10752 10752 10751 10748 10747 10746 10746 10745 10744 10743 10742 10741 10738 10737 10736 10735 10734 10733 10731 10730 10729 10727 10726 10725 10724 10722 10721 10719 10718 10716 10715 10713 10711 10709 10707 10705 10702 10700 10697 10695 10693 10690 10687 10684 10681 10678 10676 10674 10672 10670 10667 10665 10662 10658 10654 10651 10648 10645 10642 10639 10636 10632 10628 10623 10619 10615 10611 10607 10602 10598
10759 10759 10757 10756 10755 10754 10754 10754 10754 10753 10752 10751 10750 10749 10748 10747 10747 10746 10744 10743 10741 10740 10739 10739 10738 10738 10737 10734 10732 10730 10729 10728 10727 10725 10724 10722 10721 10720 10718 10717 10715 10714 10712 10710 10709 10707 10705 10703 10701 10699 10697 10694 10692 10690 10687 10685 10682 10679 10676 10673 10670 10668 10666 10663 10661 10659 10656 10653 10650 10646 10642 10639 10636 10633 10630 10627 10622 10618 10614 10609 10605 10600 10596 10592 10587
10754 10754 10753 10752 10751 10750 10750 10750 10749 10748 10748 10748 10746 10745 10744 10742 10741 10741 10740 10738 10736 10735 10734 10733 10732 10731 10731 10729 10727 10725 10724 10723 10721 10719 10718 10716 10714 10713 10711 10710 10708 10706 10705 10703 10702 10700 10698 10696 10693 10691 10689 10686 10684 10681 10679 10676 10673 10671 10667 10664 10662 10659 10657 10655 10653 10650 10647 10644 10641 10637 10633 10630 10627 10624 10621 10617 10613 10608 10604 10599 10595 10590 10586 10581 10577
10749 10749 10748 10748 10747 10746 10745 10745 10744 10744 10743 10743 10742 10740 10739 10737 10736 10735 10734 10733 10731 10730 10729 10728 10726 10725 10724 10723 10722 10720 10718 10717 10715 10713 10712 10710 10708 10706 10705 10703 10701 10699 10698 10696 10694 10692 10690 10688 10685 10683 10681 10678 10676 10673 10671 10668 10665 10662 10659 10656 10653 10650 10648 10646 10643 10641 10638 10636 10632 10628 10625 10621 10618 10614 10611 10607 10603 10598 10594 10589 10584 10580 10575 10570 10566
10745 10744 10743 10743 10742 10741 10741 10740 10739 10739 10738 10738 10737 10736 10734 10732 10730 10729 10728 10727 10726 10724 10723 10722 10720 10719 10717 10716 10715 10714 10713 10711 10709 10707 10706 10704 10702 10700 10698 10696 10694 10693 10691 10689 10686 10684 10682 10680 10678 10675 10673 10670 10668 10665 10663 10660 10657 10654 10651 10647 10644 10641 10639 10636 10633 10631 10628 10626 10622 10619 10615 10611 10608 10604 10601 10597 10592 10588 10583 10579 10574 10569 10564 10559 10554
10740 10739 10739 10739 10738 10736 10736 10735 10734 10734 10733 10733 10732 10730 10729 10727 10725 10724 10722 10722 10720 10718 10717 10716 10714 10713 10711 10709 10708 10707 10706 10705 10703 10701 10699 10697 10695 10693 10691 10690 10688 10686 10684 10681 10679 10677 10675 10673 10670 10667 10665 10662 10660 10657 10655 10652 10649 10646 10642 10638 10635 10632 10629 10626 10623 10620 10618 10615 10612 10609 10605 10601 10597 10593 10590 10586 10582 10577 10572 10567 10562 10557 10552 10547 10542
10735 10734 10735 10734 10733 10732 10731 10730 10729 10728 10728 10727 10726 10725 10723 10721 10720 10718 10717 10716 10714 10713 10711 10710 10708 10706 10704 10703 10702 10701 10699 10698 10696 10694 10692 10690 10688 10686 10685 10683 10681 10678 10676 10674 10672 10670 10667 10665 10662 10660 10657 10655 10652 10649 10646 10643 10641 10637 10634 10630 10626 10623 10619 10616 10613 10610 10607 10604 10602 10599 10595 10591 10587 10583 10579 10575 10570 10565 10561 10556 10551 10546 10540 10535 10530
10730 10729 10729 10729 10728 10727 10726 10725 10724 10723 10722 10721 10720 10719 10717 10715 10714 10713 10711 10710 10708 10707 10705 10704 10702 10700 10698 10697 10695 10694 10692 10691 10689 10687 10685 10683 10681 10679 10677 10675 10673 10671 10669 10667 10665 10662 10660 10657 10654 10652 10649 10647 10644 10641 10638 10635 10632 10629 10625 10621 10617 10613 10609 10606 10602 10599 10596 10593 10591 10588 10584 10580 10576 10571 10566 10562 10558 10554 10549 10544 10539 10534 10528 10523 10518